Epoch,demod_status_bits,ebno,lock_status,signal_level,viterbi_ber
1663922287,C;S;V;F,13.0,0x00c000,-38.4,1.51e-7
1663922288,C;S;V;F,13.3,0x00c000,-38.1,0.00e-0
1663922289,C;S;V;F,13.4,0x00c000,-38.1,0.00e-0
1663922290,C;S;V;F,13.3,0x00c000,-38.2,1.51e-7
1663922291,C;S;V;F,13.4,0x00c000,-38.3,1.51e-7
1663922292,C;S;V;F,13.3,0x00c000,-38.3,0.00e-0
1663922293,C;S;V;F,13.4,0x00c000,-38.0,0.00e-0
1663922294,C;S;V;F,13.6,0x00c000,-37.9,0.00e-0
1663922295,C;S;V;F,13.7,0x00c000,-38.1,0.00e-0
1663922296,C;S;V;F,13.8,0x00c000,-37.9,
1663922297,,13.8,0x00c000,-37.9,0.00e-0
1663922298,C;S;V;F,13.8,0x00c000,-37.9,0.00e-0
1663922299,C;S;V;F,13.9,0x00c000,-37.7,0.00e-0
1663922300,C;S;V;F,14.0,0x00c000,-37.8,0.00e-0
1663922301,C;S;V;F,,0x00c000,-37.8,0.00e-0
1663922302,C;S;V;F,14.0,0x00c000,-37.3,0.00e-0
1663922303,C;S;V;F,13.9,0x00c000,,0.00e-0
1663922304,C;S;V;F,14.4,0x00c000,-37.7,0.00e-0
1663922305,C;S;V;F,13.9,0x00c000,-37.4,0.00e-0
1663922306,C;S;V;F,14.2,0x00c000,-37.5,0.00e-0
1663922307,C;S;V;F,14.4,0x00c000,-37.5,0.00e-0
1663922308,C;S;V;F,14.2,0x00c000,-37.5,0.00e-0
1663922309,C;S;V;F,14.4,0x00c000,-37.5,0.00e-0
1663922310,C;S;V;F,14.3,0x00c000,-37.5,0.00e-0
1663922311,C;S;V;F,14.3,0x00c000,-37.6,0.00e-0
1663922312,C;S;V;F,14.4,0x00c000,-37.3,0.00e-0
1663922314,,14.6,0x00c000,-37.2,
1663922315,C;S;V;F,,0x00c000,-37.5,0.00e-0
1663922316,C;S;V;F,14.4,0x00c000,,0.00e-0
1663922317,C;S;V;F,14.6,0x00c000,-37.2,0.00e-0
1663922318,C;S;V;F,14.4,0x00c000,-37.4,0.00e-0
1663922319,C;S;V;F,14.6,0x00c000,-37.5,0.00e-0
1663922320,C;S;V;F,14.6,0x00c000,-37.2,0.00e-0
1663922321,C;S;V;F,14.5,0x00c000,-37.3,0.00e-0
1663922322,C;S;V;F,14.9,0x00c000,-37.1,0.00e-0
1663922323,C;S;V;F,14.6,0x00c000,-37.1,0.00e-0
1663922324,C;S;V;F,14.5,0x00c000,-37.1,0.00e-0
1663922325,C;S;V;F,14.8,0x00c000,-37.1,0.00e-0
1663922326,C;S;V;F,15.0,0x00c000,-36.9,0.00e-0
1663922327,C;S;V;F,14.8,0x00c000,-37.0,0.00e-0
1663922328,C;S;V;F,15.3,0x00c000,-36.9,0.00e-0
1663922329,C;S;V;F,14.9,0x00c000,-36.8,
1663922330,,15.0,0x00c000,-36.8,0.00e-0
1663922331,C;S;V;F,15.3,0x00c000,-36.8,0.00e-0
1663922332,C;S;V;F,15.4,0x00c000,-36.7,0.00e-0
1663922333,C;S;V;F,,0x00c000,-36.7,0.00e-0
1663922334,C;S;V;F,15.4,0x00c000,,0.00e-0
1663922335,C;S;V;F,15.3,0x00c000,-36.5,0.00e-0
1663922336,C;S;V;F,15.5,0x00c000,-36.5,0.00e-0
1663922337,C;S;V;F,15.4,0x00c000,-36.6,0.00e-0
1663922338,C;S;V;F,15.2,0x00c000,-36.5,0.00e-0
1663922339,C;S;V;F,15.4,0x00c000,-36.7,0.00e-0
1663922340,C;S;V;F,15.3,0x00c000,-36.5,0.00e-0
1663922341,C;S;V;F,15.5,0x00c000,-36.4,0.00e-0
1663922342,C;S;V;F,15.2,0x00c000,-36.4,0.00e-0
1663922343,C;S;V;F,15.7,0x00c000,-36.4,0.00e-0
1663922344,C;S;V;F,15.4,0x00c000,-36.5,
1663922345,,15.3,0x00c000,-36.6,0.00e-0
1663922346,C;S;V;F,15.4,0x00c000,-36.7,0.00e-0
1663922347,C;S;V;F,,0x00c000,-36.5,0.00e-0
1663922348,C;S;V;F,15.2,0x00c000,,0.00e-0
1663922349,C;S;V;F,15.2,0x00c000,-36.5,0.00e-0
1663922350,C;S;V;F,15.3,0x00c000,-36.5,0.00e-0
1663922351,C;S;V;F,15.4,0x00c000,-36.5,0.00e-0
1663922352,C;S;V;F,15.4,0x00c000,-36.5,0.00e-0
1663922353,C;S;V;F,15.3,0x00c000,-36.5,0.00e-0
1663922354,C;S;V;F,15.3,0x00c000,-36.6,0.00e-0
1663922355,C;S;V;F,15.3,0x00c000,-36.6,0.00e-0
1663922356,C;S;V;F,15.2,0x00c000,-36.6,0.00e-0
1663922357,C;S;V;F,15.5,0x00c000,-36.4,0.00e-0
1663922358,C;S;V;F,15.6,0x00c000,-36.5,0.00e-0
1663922359,C;S;V;F,15.7,0x00c000,-36.5,
1663922360,,15.6,0x00c000,-36.3,0.00e-0
1663922361,C;S;V;F,15.5,0x00c000,-36.4,0.00e-0
1663922362,C;S;V;F,15.6,0x00c000,-36.4,0.00e-0
1663922363,C;S;V;F,,0x00c000,-36.4,0.00e-0
1663922364,C;S;V;F,15.6,0x00c000,,0.00e-0
1663922365,C;S;V;F,15.6,0x00c000,-36.4,0.00e-0
1663922366,C;S;V;F,15.6,0x00c000,-36.4,0.00e-0
1663922367,C;S;V;F,15.5,0x00c000,-36.4,0.00e-0
1663922368,C;S;V;F,15.5,0x00c000,-36.4,0.00e-0
1663922369,C;S;V;F,15.7,0x00c000,-36.4,0.00e-0
1663922370,C;S;V;F,15.7,0x00c000,-36.3,0.00e-0
1663922371,C;S;V;F,15.9,0x00c000,-36.4,0.00e-0
1663922372,C;S;V;F,15.8,0x00c000,-36.3,0.00e-0
1663922373,C;S;V;F,15.7,0x00c000,-36.3,0.00e-0
1663922374,C;S;V;F,15.7,0x00c000,-36.4,0.00e-0
1663922376,C;S;V;F,15.8,0x00c000,-36.2,0.00e-0
1663922377,,15.6,0x00c000,-36.3,
1663922378,C;S;V;F,,0x00c000,,0.00e-0
1663922379,C;S;V;F,15.8,0x00c000,-36.3,0.00e-0
1663922380,C;S;V;F,15.8,0x00c000,-36.3,0.00e-0
1663922381,C;S;V;F,15.8,0x00c000,-36.3,0.00e-0
1663922382,C;S;V;F,15.9,0x00c000,-36.4,0.00e-0
1663922383,C;S;V;F,15.8,0x00c000,-36.3,0.00e-0
1663922384,C;S;V;F,16.0,0x00c000,-36.3,0.00e-0
1663922385,C;S;V;F,15.8,0x00c000,-36.3,
1663922386,,15.8,0x00c000,-36.4,0.00e-0
1663922387,C;S;V;F,15.9,0x00c000,-36.3,0.00e-0
1663922388,C;S;V;F,15.8,0x00c000,-36.4,0.00e-0
1663922389,C;S;V;F,15.9,0x00c000,-36.0,0.00e-0
1663922390,C;S;V;F,,0x00c000,-36.3,0.00e-0
1663922391,C;S;V;F,16.0,0x00c000,-36.0,0.00e-0
1663922392,C;S;V;F,16.1,0x00c000,,0.00e-0
1663922393,C;S;V;F,16.1,0x00c000,-36.1,0.00e-0
1663922394,C;S;V;F,16.0,0x00c000,-36.0,0.00e-0
1663922395,C;S;V;F,16.0,0x00c000,-36.1,0.00e-0
1663922396,C;S;V;F,16.2,0x00c000,-36.0,0.00e-0
1663922397,C;S;V;F,16.2,0x00c000,-36.1,0.00e-0
1663922398,C;S;V;F,16.2,0x00c000,-35.9,0.00e-0
1663922399,C;S;V;F,16.1,0x00c000,-36.0,0.00e-0
1663922400,C;S;V;F,16.2,0x00c000,-35.9,0.00e-0
1663922401,C;S;V;F,16.3,0x00c000,-35.9,
1663922402,,,,,0.00e-0
1663922404,,,0x00c000,-35.8,
1663922405,C;S;V;F,16.2,0x00c000,,0.00e-0
1663922406,C;S;V;F,16.3,0x00c000,-35.9,0.00e-0
1663922407,C;S;V;F,16.3,0x00c000,-35.8,0.00e-0
1663922408,C;S;V;F,16.3,0x00c000,-35.9,0.00e-0
1663922409,C;S;V;F,16.2,0x00c000,-35.7,0.00e-0
1663922410,C;S;V;F,16.5,0x00c000,-35.6,0.00e-0
1663922411,,16.5,0x00c000,-35.6,
1663922412,C;S;V;F,16.4,0x00c000,-35.8,0.00e-0
1663922413,C;S;V;F,,,,0.00e-0
1663922414,C;S;V;F,16.3,0x00c000,-35.7,0.00e-0
1663922415,C;S;V;F,16.5,0x00c000,-35.6,0.00e-0
1663922416,C;S;V;F,16.3,0x00c000,-35.8,0.00e-0
1663922417,C;S;V;F,16.4,0x00c000,-35.8,0.00e-0
1663922418,C;S;V;F,16.5,0x00c000,-35.6,0.00e-0
1663922419,C;S;V;F,16.4,0x00c000,-35.9,0.00e-0
1663922420,C;S;V;F,16.3,0x00c000,-35.8,
1663922421,,16.3,0x00c000,-35.9,0.00e-0
1663922422,C;S;V;F,16.4,0x00c000,-35.8,0.00e-0
1663922423,C;S;V;F,,0x00c000,-35.8,0.00e-0
1663922424,C;S;V;F,16.3,0x00c000,-36.0,0.00e-0
1663922425,C;S;V;F,16.3,0x00c000,,0.00e-0
1663922426,C;S;V;F,16.3,0x00c000,-35.9,0.00e-0
1663922427,C;S;V;F,16.3,0x00c000,-35.9,0.00e-0
1663922428,C;S;V;F,16.2,0x00c000,-35.8,0.00e-0
1663922429,C;S;V;F,16.4,0x00c000,-35.5,0.00e-0
1663922430,C;S;V;F,16.4,0x00c000,-35.9,0.00e-0
1663922431,C;S;V;F,16.5,0x00c000,-35.7,0.00e-0
1663922432,C;S;V;F,16.5,0x00c000,-35.6,0.00e-0
1663922433,C;S;V;F,16.4,0x00c000,-35.7,0.00e-0
1663922434,C;S;V;F,16.6,0x00c000,-35.6,0.00e-0
1663922435,C;S;V;F,16.7,0x00c000,-35.6,0.00e-0
1663922436,C;S;V;F,16.4,0x00c000,-35.6,0.00e-0
1663922437,C;S;V;F,16.5,0x00c000,-35.5,0.00e-0
1663922440,C;S;V;F,16.5,0x00c000,-35.7,0.00e-0
1663922441,C;S;V;F,16.3,0x00c000,-35.7,0.00e-0
1663922442,C;S;V;F,16.5,0x00c000,-35.7,0.00e-0
1663922443,C;S;V;F,16.5,0x00c000,-35.7,
1663922444,,16.6,0x00c000,-35.9,0.00e-0
1663922445,C;S;V;F,16.1,0x00c000,-35.9,0.00e-0
1663922446,C;S;V;F,16.3,0x00c000,-35.9,0.00e-0
1663922447,C;S;V;F,16.4,0x00c000,-36.0,0.00e-0
1663922448,C;S;V;F,16.1,0x00c000,-36.1,0.00e-0
1663922449,C;S;V;F,,0x00c000,-35.9,0.00e-0
1663922450,C;S;V;F,16.2,0x00c000,,0.00e-0
1663922451,C;S;V;F,16.3,0x00c000,-35.9,0.00e-0
1663922452,C;S;V;F,16.3,0x00c000,-35.8,0.00e-0
1663922453,C;S;V;F,16.3,0x00c000,-36.0,0.00e-0
1663922454,C;S;V;F,16.4,0x00c000,-36.1,0.00e-0
1663922455,C;S;V;F,16.1,0x00c000,-36.1,0.00e-0
1663922456,C;S;V;F,16.3,0x00c000,-36.3,0.00e-0
1663922457,C;S;V;F,16.1,0x00c000,-36.2,0.00e-0
1663922458,C;S;V;F,16.1,0x00c000,-36.4,0.00e-0
1663922459,C;S;V;F,16.0,0x00c000,-36.4,
1663922460,,16.0,0x00c000,-36.5,0.00e-0
1663922461,C;S;V;F,15.9,0x00c000,-36.4,0.00e-0
1663922462,C;S;V;F,,0x00c000,-36.4,0.00e-0
1663922463,C;S;V;F,16.1,0x00c000,,0.00e-0
1663922464,C;S;V;F,15.9,0x00c000,-36.4,0.00e-0
1663922465,C;S;V;F,16.1,0x00c000,-36.3,0.00e-0
1663922466,C;S;V;F,16.0,0x00c000,-36.3,0.00e-0
1663922467,C;S;V;F,16.1,0x00c000,-36.3,0.00e-0
1663922468,C;S;V;F,16.3,0x00c000,-36.3,0.00e-0
1663922469,C;S;V;F,16.3,0x00c000,-36.2,0.00e-0
1663922470,C;S;V;F,16.1,0x00c000,-36.0,0.00e-0
1663922471,C;S;V;F,16.3,0x00c000,-36.0,
1663922472,,16.2,0x00c000,-36.3,0.00e-0
1663922473,C;S;V;F,16.4,0x00c000,-36.1,0.00e-0
1663922474,C;S;V;F,16.2,0x00c000,-35.9,0.00e-0
1663922475,C;S;V;F,,0x00c000,-36.0,0.00e-0
1663922476,C;S;V;F,16.3,0x00c000,-35.7,0.00e-0
1663922477,C;S;V;F,16.4,0x00c000,,0.00e-0
1663922478,C;S;V;F,16.3,0x00c000,-35.8,0.00e-0
1663922479,C;S;V;F,16.3,0x00c000,-35.8,0.00e-0
1663922480,C;S;V;F,16.4,0x00c000,-36.0,0.00e-0
1663922481,C;S;V;F,16.2,0x00c000,-36.0,0.00e-0
1663922482,C;S;V;F,16.3,0x00c000,-36.0,0.00e-0
1663922483,C;S;V;F,16.3,0x00c000,-36.0,0.00e-0
1663922484,C;S;V;F,16.2,0x00c000,-35.9,0.00e-0
1663922485,C;S;V;F,16.2,0x00c000,-35.9,0.00e-0
1663922486,C;S;V;F,16.4,0x00c000,-35.9,0.00e-0
1663922487,,16.5,0x00c000,-35.9,
1663922488,C;S;V;F,16.5,0x00c000,-35.7,0.00e-0
1663922489,C;S;V;F,16.5,0x00c000,-35.8,0.00e-0
1663922490,C;S;V;F,16.4,0x00c000,-35.9,0.00e-0
1663922491,C;S;V;F,,0x00c000,-36.0,0.00e-0
1663922492,C;S;V;F,16.4,0x00c000,-35.8,0.00e-0
1663922493,C;S;V;F,16.4,0x00c000,,0.00e-0
1663922494,C;S;V;F,16.4,0x00c000,-35.7,0.00e-0
1663922495,C;S;V;F,16.4,0x00c000,-35.7,0.00e-0
1663922496,C;S;V;F,16.4,0x00c000,-35.9,0.00e-0
1663922497,C;S;V;F,16.1,0x00c000,-36.1,0.00e-0
1663922498,C;S;V;F,15.6,0x00c000,-36.3,0.00e-0
1663922499,C;S;V;F,15.8,0x00c000,-36.6,0.00e-0
1663922500,C;S;V;F,15.6,0x00c000,-36.5,0.00e-0
1663922502,,,0x00c000,-37.1,
1663922503,C;S;V;F,15.3,0x00c000,,0.00e-0
1663922504,C;S;V;F,15.3,0x00c000,-37.1,0.00e-0
1663922505,C;S;V;F,15.3,0x00c000,-37.1,0.00e-0
1663922506,C;S;V;F,15.2,0x00c000,-37.2,0.00e-0
1663922507,C;S;V;F,15.1,0x00c000,-37.3,0.00e-0
1663922508,C;S;V;F,15.1,0x00c000,-37.2,0.00e-0
1663922509,C;S;V;F,14.8,0x00c000,-37.5,0.00e-0
1663922510,C;S;V;F,15.0,0x00c000,-37.6,0.00e-0
1663922511,C;S;V;F,15.0,0x00c000,-37.6,0.00e-0
1663922512,C;S;V;F,15.1,0x00c000,-37.5,0.00e-0
1663922513,C;S;V;F,15.3,0x00c000,-37.3,0.00e-0
1663922514,C;S;V;F,15.2,0x00c000,-37.1,
1663922515,,15.6,0x00c000,-36.9,0.00e-0
1663922516,C;S;V;F,15.4,0x00c000,-37.2,0.00e-0
1663922517,C;S;V;F,15.2,0x00c000,-37.2,0.00e-0
1663922518,C;S;V;F,15.2,0x00c000,-37.3,0.00e-0
1663922519,C;S;V;F,15.4,0x00c000,-37.2,0.00e-0
1663922520,C;S;V;F,,0x00c000,-37.2,0.00e-0
1663922521,C;S;V;F,15.4,0x00c000,,0.00e-0
1663922522,C;S;V;F,15.4,0x00c000,-37.2,0.00e-0
1663922523,C;S;V;F,15.4,0x00c000,-37.1,0.00e-0
1663922524,C;S;V;F,15.3,0x00c000,-37.1,0.00e-0
1663922525,C;S;V;F,15.3,0x00c000,-37.1,
1663922526,C;S;V;F,15.4,0x00c000,-36.9,0.00e-0
1663922527,,15.6,0x00c000,-36.8,0.00e-0
1663922528,C;S;V;F,15.7,0x00c000,-36.9,0.00e-0
1663922529,C;S;V;F,15.6,0x00c000,-37.0,0.00e-0
1663922530,C;S;V;F,,0x00c000,-36.8,0.00e-0
1663922531,C;S;V;F,15.3,0x00c000,,0.00e-0
1663922532,C;S;V;F,15.5,0x00c000,-36.8,0.00e-0
1663922533,C;S;V;F,15.6,0x00c000,-36.8,0.00e-0
1663922534,C;S;V;F,15.7,0x00c000,-36.7,0.00e-0
1663922535,C;S;V;F,15.6,0x00c000,-36.6,0.00e-0
1663922536,C;S;V;F,15.8,0x00c000,-36.8,0.00e-0
1663922537,C;S;V;F,15.5,0x00c000,-36.9,0.00e-0
1663922538,C;S;V;F,15.6,0x00c000,-36.7,0.00e-0
1663922539,C;S;V;F,15.7,0x00c000,-36.5,0.00e-0
1663922540,C;S;V;F,15.9,0x00c000,-36.7,
1663922541,,15.9,0x00c000,-36.8,0.00e-0
1663922542,C;S;V;F,15.7,0x00c000,-36.8,0.00e-0
1663922543,C;S;V;F,15.8,0x00c000,-36.8,0.00e-0
1663922544,C;S;V;F,15.9,0x00c000,-36.6,0.00e-0
1663922545,C;S;V;F,,0x00c000,-36.7,0.00e-0
1663922546,C;S;V;F,15.6,0x00c000,,0.00e-0
1663922547,C;S;V;F,15.5,0x00c000,-37.1,0.00e-0
1663922548,C;S;V;F,15.3,0x00c000,-37.5,0.00e-0
1663922549,C;S;V;F,15.1,0x00c000,-37.6,0.00e-0
1663922550,C;S;V;F,14.5,0x00c000,-38.2,0.00e-0
1663922551,C;S;V;F,14.2,0x00c000,-38.6,0.00e-0
1663922552,C;S;V;F,14.0,0x00c000,-38.8,0.00e-0
1663922553,C;S;V;F,13.7,0x00c000,-39.0,0.00e-0
1663922554,C;S;V;F,13.4,0x00c000,-39.2,
1663922555,C;S;V;F,13.2,0x00c000,-39.3,0.00e-0
1663922556,,13.2,0x00c000,-39.7,0.00e-0
1663922557,C;S;V;F,12.6,0x00c000,-40.2,0.00e-0
1663922558,C;S;V;F,12.4,0x00c000,-40.1,4.54e-7
1663922559,C;S;V;F,,0x00c000,-40.2,9.09e-7
1663922560,C;S;V;F,12.4,0x00c000,,1.05e-6
1663922561,C;S;V;F,12.7,0x00c000,-39.8,9.09e-7
1663922562,C;S;V;F,12.8,0x00c000,-40.0,0.00e-0
1663922563,C;S;V;F,12.4,0x00c000,-40.1,3.03e-7
1663922565,,11.6,0x00c000,-41.1,
1663922566,C;S;V;F,11.1,0x00c000,-41.1,7.56e-6
1663922567,C;S;V;F,,0x00c000,-41.4,1.24e-5
1663922568,C;S;V;F,11.1,0x00c000,-41.9,1.90e-5
1663922569,C;S;V;F,11.0,0x00c000,-41.6,2.60e-5
1663922570,C;S;V;F,10.6,0x00c000,,4.34e-5
1663922571,C;S;V;F,10.7,0x00c000,-41.8,4.69e-5
1663922572,C;S;V;F,11.1,0x00c000,-41.5,4.98e-5
1663922573,C;S;V;F,11.2,0x00c000,-41.2,3.07e-5
1663922574,C;S;V;F,11.8,0x00c000,-40.8,2.03e-5
1663922575,C;S;V;F,12.3,0x00c000,-40.5,5.44e-6
1663922576,C;S;V;F,12.8,0x00c000,-39.8,1.96e-6
1663922577,C;S;V;F,12.8,0x00c000,-39.7,7.57e-7
1663922578,C;S;V;F,13.0,0x00c000,-39.5,4.54e-7
1663922579,C;S;V;F,13.0,0x00c000,-39.6,1.51e-7
1663922580,C;S;V;F,13.1,0x00c000,-39.2,0.00e-0
1663922581,,13.5,0x00c000,-39.0,
1663922582,C;S;V;F,13.7,0x00c000,-38.8,0.00e-0
1663922583,C;S;V;F,13.6,0x00c000,-38.8,0.00e-0
1663922584,C;S;V;F,,0x00c000,-38.7,0.00e-0
1663922585,C;S;V;F,13.8,0x00c000,-38.4,0.00e-0
1663922586,C;S;V;F,14.2,0x00c000,-38.1,0.00e-0
1663922587,C;S;V;F,14.5,0x00c000,,0.00e-0
1663922588,C;S;V;F,14.5,0x00c000,-38.0,0.00e-0
1663922589,C;S;V;F,14.9,0x00c000,-37.8,0.00e-0
1663922590,C;S;V;F,15.0,0x00c000,-37.5,0.00e-0
1663922591,C;S;V;F,15.2,0x00c000,-36.8,0.00e-0
1663922592,C;S;V;F,15.7,0x00c000,-36.7,0.00e-0
1663922593,C;S;V;F,16.0,0x00c000,-36.5,0.00e-0
1663922594,C;S;V;F,15.8,0x00c000,-36.7,0.00e-0
1663922595,C;S;V;F,15.8,0x00c000,-36.8,0.00e-0
1663922596,C;S;V;F,15.8,0x00c000,-36.6,0.00e-0
1663922597,C;S;V;F,15.6,0x00c000,-36.4,
1663922598,,16.0,0x00c000,-36.3,0.00e-0
1663922599,C;S;V;F,16.2,0x00c000,-36.2,0.00e-0
1663922600,C;S;V;F,,0x00c000,-36.3,0.00e-0
1663922601,C;S;V;F,16.2,0x00c000,-36.4,0.00e-0
1663922602,C;S;V;F,16.2,0x00c000,-36.4,0.00e-0
1663922603,C;S;V;F,16.1,0x00c000,,0.00e-0
1663922604,C;S;V;F,16.2,0x00c000,-36.1,0.00e-0
1663922605,C;S;V;F,16.4,0x00c000,-36.2,0.00e-0
1663922606,C;S;V;F,16.2,0x00c000,-35.9,0.00e-0
1663922607,C;S;V;F,16.2,0x00c000,-36.0,0.00e-0
1663922608,C;S;V;F,16.3,0x00c000,-36.3,0.00e-0
1663922609,C;S;V;F,16.5,0x00c000,-36.2,0.00e-0
1663922610,C;S;V;F,16.4,0x00c000,-36.0,0.00e-0
1663922611,C;S;V;F,16.7,0x00c000,-35.5,0.00e-0
1663922612,C;S;V;F,17.0,0x00c000,-35.1,0.00e-0
1663922613,C;S;V;F,17.3,0x00c000,-34.9,
1663922614,,17.6,0x00c000,-34.4,0.00e-0
1663922615,C;S;V;F,17.5,0x00c000,-34.4,0.00e-0
1663922616,C;S;V;F,17.5,0x00c000,-34.4,0.00e-0
1663922617,C;S;V;F,,0x00c000,-34.7,0.00e-0
1663922618,C;S;V;F,17.6,0x00c000,-34.7,0.00e-0
1663922619,C;S;V;F,17.5,0x00c000,,0.00e-0
1663922620,C;S;V;F,17.5,0x00c000,-34.8,0.00e-0
1663922621,C;S;V;F,17.2,0x00c000,-34.7,0.00e-0
1663922622,C;S;V;F,17.5,0x00c000,-34.8,0.00e-0
1663922623,C;S;V;F,17.3,0x00c000,-34.7,0.00e-0
1663922624,C;S;V;F,17.7,0x00c000,-34.4,0.00e-0
1663922625,C;S;V;F,17.7,0x00c000,-34.4,0.00e-0
1663922627,C;S;V;F,17.4,0x00c000,-34.9,0.00e-0
1663922628,,17.1,0x00c000,-35.3,
1663922629,C;S;V;F,17.0,0x00c000,-35.3,0.00e-0
1663922630,C;S;V;F,17.0,0x00c000,-35.2,0.00e-0
1663922631,C;S;V;F,,0x00c000,-35.2,0.00e-0
1663922632,C;S;V;F,17.0,0x00c000,-35.5,0.00e-0
1663922633,C;S;V;F,17.0,0x00c000,,0.00e-0
1663922634,C;S;V;F,16.6,0x00c000,-35.6,0.00e-0
1663922635,C;S;V;F,16.5,0x00c000,-35.8,0.00e-0
1663922636,C;S;V;F,16.2,0x00c000,-35.7,0.00e-0
1663922637,C;S;V;F,16.5,0x00c000,-35.7,0.00e-0
1663922638,C;S;V;F,16.2,0x00c000,-35.7,0.00e-0
1663922639,C;S;V;F,16.4,0x00c000,-35.9,0.00e-0
1663922640,C;S;V;F,16.5,0x00c000,-36.0,0.00e-0
1663922641,C;S;V;F,16.6,0x00c000,-35.7,0.00e-0
1663922642,C;S;V;F,16.5,0x00c000,-35.8,0.00e-0
1663922643,,16.7,0x00c000,-35.7,
1663922644,C;S;V;F,16.6,0x00c000,-35.9,0.00e-0
1663922645,C;S;V;F,16.5,0x00c000,-35.9,0.00e-0
1663922646,C;S;V;F,16.8,0x00c000,-35.5,0.00e-0
1663922647,C;S;V;F,,0x00c000,-35.5,0.00e-0
1663922648,C;S;V;F,16.7,0x00c000,-35.8,0.00e-0
1663922649,C;S;V;F,16.2,0x00c000,-36.3,0.00e-0
1663922650,C;S;V;F,16.3,0x00c000,,0.00e-0
1663922651,C;S;V;F,16.0,0x00c000,-36.4,0.00e-0
1663922652,C;S;V;F,15.8,0x00c000,-36.7,0.00e-0
1663922653,C;S;V;F,15.9,0x00c000,-36.8,0.00e-0
1663922654,C;S;V;F,15.6,0x00c000,-36.6,0.00e-0
1663922655,C;S;V;F,16.0,0x00c000,-36.6,0.00e-0
1663922656,C;S;V;F,15.7,0x00c000,-36.8,0.00e-0
1663922657,C;S;V;F,15.6,0x00c000,-37.0,0.00e-0
1663922658,C;S;V;F,15.5,0x00c000,-37.1,
1663922659,,15.4,0x00c000,-37.2,0.00e-0
1663922660,C;S;V;F,15.6,0x00c000,-37.4,0.00e-0
1663922661,C;S;V;F,15.2,0x00c000,-37.4,0.00e-0
1663922662,C;S;V;F,,0x00c000,-37.5,0.00e-0
1663922663,C;S;V;F,15.0,0x00c000,-37.8,0.00e-0
1663922664,C;S;V;F,15.0,0x00c000,,0.00e-0
1663922665,C;S;V;F,15.2,0x00c000,-37.8,0.00e-0
1663922666,C;S;V;F,15.2,0x00c000,-37.6,0.00e-0
1663922667,C;S;V;F,15.1,0x00c000,-37.6,0.00e-0
1663922668,C;S;V;F,15.1,0x00c000,-37.6,0.00e-0
1663922669,C;S;V;F,14.9,0x00c000,-37.8,0.00e-0
1663922670,C;S;V;F,14.5,0x00c000,-38.0,0.00e-0
1663922671,C;S;V;F,14.5,0x00c000,-38.2,0.00e-0
1663922672,C;S;V;F,14.5,0x00c000,-38.0,0.00e-0
1663922673,C;S;V;F,14.7,0x00c000,-38.0,
1663922674,,14.8,0x00c000,-37.8,0.00e-0
1663922675,C;S;V;F,15.0,0x00c000,-37.7,0.00e-0
1663922676,C;S;V;F,,0x00c000,-37.7,0.00e-0
1663922677,C;S;V;F,15.1,0x00c000,-37.7,0.00e-0
1663922678,C;S;V;F,15.0,0x00c000,,0.00e-0
1663922679,C;S;V;F,14.9,0x00c000,-37.6,0.00e-0
1663922680,C;S;V;F,15.2,0x00c000,-37.5,0.00e-0
1663922681,C;S;V;F,14.7,0x00c000,-37.9,0.00e-0
1663922682,C;S;V;F,14.7,0x00c000,-38.0,0.00e-0
1663922683,C;S;V;F,14.5,0x00c000,-37.6,0.00e-0
1663922684,C;S;V;F,15.1,0x00c000,-37.5,0.00e-0
1663922685,C;S;V;F,15.4,0x00c000,-37.2,0.00e-0
1663922686,C;S;V;F,15.4,0x00c000,-37.2,0.00e-0
1663922687,C;S;V;F,15.5,0x00c000,-37.2,0.00e-0
1663922688,C;S;V;F,15.5,0x00c000,-37.0,
1663922689,,,,,0.00e-0
1663922691,C;S;V;F,15.2,0x00c000,-37.5,0.00e-0
1663922692,C;S;V;F,15.2,0x00c000,-37.2,0.00e-0
1663922693,,15.3,0x00c000,-36.8,
1663922694,C;S;V;F,15.7,0x00c000,-36.8,0.00e-0
1663922695,C;S;V;F,15.4,0x00c000,-36.8,0.00e-0
1663922696,C;S;V;F,,0x00c000,-37.2,0.00e-0
1663922697,C;S;V;F,15.2,0x00c000,-37.2,0.00e-0
1663922698,C;S;V;F,15.2,0x00c000,,0.00e-0
1663922699,C;S;V;F,15.1,0x00c000,-37.5,0.00e-0
1663922700,C;S;V;F,14.8,0x00c000,-37.7,0.00e-0
1663922701,C;S;V;F,14.8,0x00c000,-37.8,0.00e-0
1663922702,C;S;V;F,14.8,0x00c000,-37.9,0.00e-0
1663922703,C;S;V;F,15.0,0x00c000,-37.9,0.00e-0
1663922707,,14.8,0x00c000,-37.9,
1663922708,C;S;V;F,15.0,0x00c000,-37.7,0.00e-0
1663922709,C;S;V;F,14.8,0x00c000,-37.7,0.00e-0
1663922710,C;S;V;F,15.0,0x00c000,-37.8,0.00e-0
1663922711,C;S;V;F,,0x00c000,-37.9,0.00e-0
1663922712,C;S;V;F,14.8,0x00c000,-38.0,0.00e-0
1663922713,C;S;V;F,14.7,0x00c000,,0.00e-0
1663922714,C;S;V;F,14.5,0x00c000,-38.0,0.00e-0
1663922715,,14.5,0x00c000,-38.0,
1663922716,C;S;V;F,14.6,0x00c000,-37.9,0.00e-0
1663922717,C;S;V;F,,0x00c000,-38.2,0.00e-0
1663922718,C;S;V;F,14.7,0x00c000,,0.00e-0
1663922719,C;S;V;F,14.6,0x00c000,-37.9,0.00e-0
1663922720,C;S;V;F,14.8,0x00c000,-37.7,0.00e-0
1663922721,C;S;V;F,15.0,0x00c000,-37.5,0.00e-0
1663922722,C;S;V;F,15.0,0x00c000,-37.8,0.00e-0
1663922723,C;S;V;F,14.8,0x00c000,-37.7,0.00e-0
1663922724,C;S;V;F,15.1,0x00c000,-37.7,0.00e-0
1663922725,C;S;V;F,15.2,0x00c000,-37.2,0.00e-0
1663922726,C;S;V;F,15.2,0x00c000,-37.3,0.00e-0
1663922727,C;S;V;F,15.5,0x00c000,-37.1,
1663922728,C;S;V;F,15.3,0x00c000,-37.2,0.00e-0
1663922729,,15.6,0x00c000,-37.2,0.00e-0
1663922730,C;S;V;F,15.6,0x00c000,-37.0,0.00e-0
1663922731,C;S;V;F,15.6,0x00c000,-37.1,0.00e-0
1663922732,C;S;V;F,,0x00c000,-37.3,0.00e-0
1663922733,C;S;V;F,15.3,0x00c000,-37.6,0.00e-0
1663922734,C;S;V;F,15.3,0x00c000,-37.5,0.00e-0
1663922735,C;S;V;F,15.1,0x00c000,,0.00e-0
1663922736,C;S;V;F,15.2,0x00c000,-37.3,0.00e-0
1663922737,C;S;V;F,15.2,0x00c000,-37.3,0.00e-0
1663922738,C;S;V;F,15.5,0x00c000,-36.8,0.00e-0
1663922739,C;S;V;F,16.0,0x00c000,-36.5,0.00e-0
1663922740,C;S;V;F,15.9,0x00c000,-36.3,0.00e-0
1663922741,C;S;V;F,16.1,0x00c000,-36.3,0.00e-0
1663922742,C;S;V;F,16.2,0x00c000,-36.2,0.00e-0
1663922743,C;S;V;F,16.6,0x00c000,-36.3,0.00e-0
1663922744,C;S;V;F,16.6,0x00c000,-36.1,0.00e-0
1663922745,C;S;V;F,16.3,0x00c000,-35.9,
1663922746,,16.5,0x00c000,-35.8,0.00e-0
1663922747,C;S;V;F,16.6,0x00c000,-35.6,0.00e-0
1663922748,C;S;V;F,,0x00c000,-35.5,0.00e-0
1663922749,C;S;V;F,16.9,0x00c000,-35.1,0.00e-0
1663922750,C;S;V;F,17.1,0x00c000,,0.00e-0
1663922751,C;S;V;F,17.1,0x00c000,-35.0,0.00e-0
1663922752,,,0x00c000,-34.8,
1663922753,C;S;V;F,17.3,0x00c000,,0.00e-0
1663922754,C;S;V;F,17.4,0x00c000,-34.6,0.00e-0
1663922755,C;S;V;F,17.4,0x00c000,-34.7,0.00e-0
1663922756,C;S;V;F,17.5,0x00c000,-34.5,0.00e-0
1663922757,C;S;V;F,17.6,0x00c000,-34.5,0.00e-0
1663922758,C;S;V;F,17.8,0x00c000,-34.0,0.00e-0
1663922759,C;S;V;F,18.0,0x00c000,-33.8,0.00e-0
1663922760,C;S;V;F,18.2,0x00c000,-33.9,0.00e-0
1663922761,C;S;V;F,18.0,0x00c000,-33.6,0.00e-0
1663922762,C;S;V;F,18.2,0x00c000,-33.8,
1663922763,,18.0,0x00c000,-33.8,0.00e-0
1663922764,C;S;V;F,18.2,0x00c000,-33.5,0.00e-0
1663922765,C;S;V;F,18.0,0x00c000,-33.7,0.00e-0
1663922766,C;S;V;F,18.2,0x00c000,-33.7,0.00e-0
1663922767,C;S;V;F,18.2,0x00c000,-33.4,0.00e-0
1663922768,C;S;V;F,,0x00c000,-33.4,0.00e-0
1663922769,C;S;V;F,18.4,0x00c000,-33.2,0.00e-0
1663922770,C;S;V;F,18.6,0x00c000,,0.00e-0
1663922771,C;S;V;F,18.5,0x00c000,-33.2,0.00e-0
1663922772,C;S;V;F,18.4,0x00c000,-33.0,0.00e-0
1663922773,C;S;V;F,18.5,0x00c000,-33.1,0.00e-0
1663922774,C;S;V;F,18.6,0x00c000,-33.0,0.00e-0
1663922775,C;S;V;F,18.4,0x00c000,-33.2,0.00e-0
1663922776,C;S;V;F,18.4,0x00c000,-33.1,0.00e-0
1663922777,C;S;V;F,18.5,0x00c000,-32.9,0.00e-0
1663922778,C;S;V;F,18.5,0x00c000,-32.8,
1663922779,,18.5,0x00c000,-33.0,0.00e-0
1663922780,C;S;V;F,18.4,0x00c000,-33.2,0.00e-0
1663922781,C;S;V;F,18.1,0x00c000,-33.1,0.00e-0
1663922782,C;S;V;F,,0x00c000,-33.2,0.00e-0
1663922783,C;S;V;F,18.7,0x00c000,,0.00e-0
1663922784,C;S;V;F,18.3,0x00c000,-33.3,0.00e-0
1663922785,C;S;V;F,18.2,0x00c000,-33.4,0.00e-0
1663922786,C;S;V;F,18.1,0x00c000,-33.6,0.00e-0
1663922787,C;S;V;F,18.2,0x00c000,-33.6,0.00e-0
1663922788,C;S;V;F,18.0,0x00c000,-33.7,0.00e-0
1663922789,C;S;V;F,18.1,0x00c000,-33.6,0.00e-0
1663922790,C;S;V;F,18.3,0x00c000,-33.5,0.00e-0
1663922791,C;S;V;F,18.1,0x00c000,-33.5,0.00e-0
1663922792,C;S;V;F,18.2,0x00c000,-33.2,
1663922793,,18.0,0x00c000,-33.6,0.00e-0
1663922794,C;S;V;F,18.0,0x00c000,-33.7,0.00e-0
1663922795,C;S;V;F,18.0,0x00c000,-34.0,0.00e-0
1663922796,C;S;V;F,,0x00c000,-34.0,0.00e-0
1663922797,C;S;V;F,17.9,0x00c000,-34.1,0.00e-0
1663922798,C;S;V;F,18.0,0x00c000,-34.1,0.00e-0
1663922799,C;S;V;F,17.7,0x00c000,,0.00e-0
1663922800,C;S;V;F,17.7,0x00c000,-34.2,0.00e-0
1663922801,C;S;V;F,17.7,0x00c000,-34.1,0.00e-0
1663922802,C;S;V;F,17.7,0x00c000,-34.0,0.00e-0
1663922803,C;S;V;F,17.9,0x00c000,-34.0,0.00e-0
1663922804,C;S;V;F,17.7,0x00c000,-34.2,0.00e-0
1663922805,C;S;V;F,17.6,0x00c000,-34.1,0.00e-0
1663922806,C;S;V;F,17.5,0x00c000,-34.3,0.00e-0
1663922807,C;S;V;F,17.5,0x00c000,-34.4,0.00e-0
1663922808,C;S;V;F,17.4,0x00c000,-34.3,0.00e-0
1663922809,C;S;V;F,17.3,0x00c000,-34.4,
1663922810,,17.0,0x00c000,-34.5,0.00e-0
1663922811,C;S;V;F,17.3,0x00c000,-34.4,0.00e-0
1663922812,C;S;V;F,17.4,0x00c000,-34.3,0.00e-0
1663922813,C;S;V;F,,0x00c000,-34.4,0.00e-0
1663922814,C;S;V;F,17.3,0x00c000,,0.00e-0
1663922816,,17.3,0x00c000,-34.7,
1663922817,C;S;V;F,17.3,0x00c000,-34.8,0.00e-0
1663922818,C;S;V;F,17.2,0x00c000,-34.8,0.00e-0
1663922819,C;S;V;F,,0x00c000,-34.8,0.00e-0
1663922820,C;S;V;F,17.0,0x00c000,,0.00e-0
1663922821,C;S;V;F,17.2,0x00c000,-34.8,0.00e-0
1663922822,C;S;V;F,17.0,0x00c000,-34.9,0.00e-0
1663922823,C;S;V;F,17.0,0x00c000,-35.0,0.00e-0
1663922824,C;S;V;F,17.1,0x00c000,-35.1,0.00e-0
1663922825,C;S;V;F,17.0,0x00c000,-35.1,0.00e-0
1663922826,C;S;V;F,17.1,0x00c000,-35.2,0.00e-0
1663922827,C;S;V;F,16.9,0x00c000,-35.2,0.00e-0
1663922828,C;S;V;F,16.9,0x00c000,-35.3,0.00e-0